Weather History for KPPQ - September, 2012

Change the Weather History Date:

Tuesday, September 18, 2012

  Actual Average (KUIN) Record (KUIN)
Temperature  
Mean Temperature 60 °F 65 °F  
Max Temperature 71 °F 76 °F 98 °F (1925)
Min Temperature 50 °F 55 °F 33 °F (1901)
Degree Days  
Heating Degree Days 5 3  
Month to date heating degree days 26  
Since 1 July heating degree days 31  
Cooling Degree Days 0 3  
Month to date cooling degree days 95  
Year to date cooling degree days 1048  
Growing Degree Days 10 (Base 50)    
Moisture  
Dew Point 42 °F    
Average Humidity 56    
Maximum Humidity 81    
Minimum Humidity 24    
Precipitation  
Precipitation 0.00 in 0.10 in 2.26 in (1975)
Month to date precipitation 1.96  
Year to date precipitation 27.71  
Sea Level Pressure  
Sea Level Pressure 30.01 in    
Wind  
Wind Speed 8 mph (NW)    
Max Wind Speed 15 mph    
Max Gust Speed 21 mph    
Visibility 10 miles    
Events      
T = Trace of Precipitation, MM = Missing Value Source: NWS Daily Summary

Daily Weather History Graph

Daily Weather History Graph

Search for Another Location

Airport or City:

Trip Planner

Search our weather history database for the weather conditions in past years. The results will help you decide how hot, cold, wet, or windy it might be!

Date:

Astronomy

Sep. 18, 2012 Rise Set
Actual Time 6:47 AM CDT 7:05 PM CDT
Civil Twilight 6:20 AM CDT 7:32 PM CDT
Nautical Twilight 5:48 AM CDT 8:04 PM CDT
Astronomical Twilight 5:16 AM CDT 8:36 PM CDT
Moon 9:46 AM CDT (9/18) 8:30 PM CDT (9/18)
Length of Visible Light 13h 12m
Length of Day
12h 18m
Waxing Crescent, 9% of the Moon is Illuminated
Sep 18
Waxing Crescent
Sep 22
First Quarter
Sep 29
Full
Oct 8
Last Quarter
Oct 15
New

Hourly Weather History & Observations

Time (CDT) Temp. Dew Point Humidity Pressure Visibility Wind Dir Wind Speed Gust Speed Precip Events Conditions
12:15 AM 59.4 °F 50.5 °F 73% 29.92 in 10.0 mi NNW 10.4 mph 16.1 mph N/A   Clear
12:35 AM 58.6 °F 50.2 °F 73% 29.92 in 10.0 mi NNW 9.2 mph - N/A   Clear
12:55 AM 58.5 °F 49.5 °F 72% 29.92 in 10.0 mi NNW 10.4 mph - N/A   Clear
1:15 AM 58.1 °F 49.1 °F 72% 29.93 in 10.0 mi NNW 11.5 mph 18.4 mph N/A   Clear
1:35 AM 57.6 °F 48.6 °F 72% 29.93 in 10.0 mi NNW 10.4 mph - N/A   Clear
1:55 AM 57.4 °F 48.2 °F 71% 29.93 in 10.0 mi NNW 9.2 mph - N/A   Clear
2:15 AM 57.6 °F 47.8 °F 70% 29.94 in 10.0 mi NNW 9.2 mph - N/A   Clear
2:35 AM 56.8 °F 47.7 °F 71% 29.93 in 10.0 mi NW 9.2 mph - N/A   Clear
2:55 AM 56.5 °F 47.7 °F 72% 29.93 in 10.0 mi NW 5.8 mph - N/A   Clear
3:15 AM 55.6 °F 47.7 °F 75% 29.93 in 10.0 mi WNW 5.8 mph - N/A   Clear
3:35 AM 55.2 °F 48.0 °F 77% 29.93 in 10.0 mi WNW 5.8 mph - N/A   Clear
3:55 AM 54.5 °F 48.2 °F 79% 29.94 in 10.0 mi WNW 4.6 mph - N/A   Clear
4:15 AM 54.5 °F 48.2 °F 79% 29.94 in 10.0 mi WNW 5.8 mph - N/A   Clear
4:35 AM 53.8 °F 48.2 °F 81% 29.94 in 10.0 mi WNW 5.8 mph - N/A   Clear
4:55 AM 54.0 °F 48.0 °F 80% 29.94 in 10.0 mi WNW 5.8 mph - N/A   Clear
5:15 AM 53.6 °F 47.7 °F 80% 29.96 in 10.0 mi WNW 5.8 mph - N/A   Clear
5:35 AM 53.6 °F 47.5 °F 80% 29.96 in 10.0 mi WNW 6.9 mph - N/A   Clear
5:55 AM 53.4 °F 47.5 °F 80% 29.96 in 10.0 mi WNW 5.8 mph - N/A   Clear
6:15 AM 52.9 °F 47.3 °F 81% 29.97 in 10.0 mi WNW 4.6 mph - N/A   Clear
6:35 AM 52.5 °F 46.8 °F 81% 29.97 in 10.0 mi NW 5.8 mph - N/A   Clear
6:55 AM 52.7 °F 46.9 °F 81% 29.98 in 10.0 mi WNW 4.6 mph - N/A   Clear
7:15 AM 52.5 °F 46.9 °F 81% 29.98 in 10.0 mi WNW 3.5 mph - N/A   Clear
7:35 AM 52.9 °F 47.3 °F 81% 29.99 in 10.0 mi WNW 4.6 mph - N/A   Clear
7:55 AM 54.5 °F 47.3 °F 77% 29.99 in 10.0 mi NW 5.8 mph - N/A   Clear
8:15 AM 55.9 °F 47.5 °F 73% 30.00 in 10.0 mi NW 5.8 mph - N/A   Clear
8:35 AM 57.2 °F 46.9 °F 69% 30.00 in 10.0 mi NW 5.8 mph - N/A   Clear
8:55 AM 58.8 °F 46.9 °F 65% 30.00 in 10.0 mi NW 5.8 mph - N/A   Clear
9:15 AM 60.1 °F 46.8 °F 61% 30.01 in 10.0 mi NW 8.1 mph - N/A   Clear
9:35 AM 61.0 °F 46.4 °F 59% 30.01 in 10.0 mi NW 5.8 mph - N/A   Clear
9:55 AM 62.4 °F 46.6 °F 56% 30.01 in 10.0 mi NNW 5.8 mph - N/A   Clear
10:15 AM 63.5 °F 45.3 °F 52% 30.02 in 10.0 mi WNW 6.9 mph - N/A   Clear
10:35 AM 64.9 °F 42.6 °F 44% 30.02 in 10.0 mi WNW 8.1 mph - N/A   Clear
10:55 AM 66.9 °F 40.1 °F 37% 30.03 in 10.0 mi NNW 9.2 mph - N/A   Clear
11:15 AM 67.1 °F 37.8 °F 34% 30.03 in 10.0 mi NNW 13.8 mph 20.7 mph N/A   Clear
11:35 AM 67.5 °F 37.8 °F 34% 30.03 in 10.0 mi WNW 11.5 mph - N/A   Clear
11:55 AM 68.2 °F 39.4 °F 35% 30.03 in 10.0 mi NNW 12.7 mph 19.6 mph N/A   Scattered Clouds
12:15 PM 68.2 °F 39.0 °F 34% 30.03 in 10.0 mi NNW 11.5 mph 16.1 mph N/A   Scattered Clouds
12:35 PM 68.4 °F 38.7 °F 34% 30.03 in 10.0 mi NW 12.7 mph 19.6 mph N/A   Scattered Clouds
12:55 PM 68.0 °F 37.2 °F 32% 30.03 in 10.0 mi NW 15.0 mph 20.7 mph N/A   Scattered Clouds
1:15 PM 67.8 °F 38.3 °F 34% 30.03 in 10.0 mi NNW 13.8 mph 18.4 mph N/A   Scattered Clouds
1:35 PM 69.8 °F 37.4 °F 31% 30.03 in 10.0 mi NNW 13.8 mph 18.4 mph N/A   Scattered Clouds
1:55 PM 68.0 °F 33.8 °F 28% 30.03 in 10.0 mi NW 11.5 mph 18.4 mph N/A   Scattered Clouds
2:15 PM 69.3 °F 33.3 °F 26% 30.03 in 10.0 mi NW 12.7 mph - N/A   Clear
2:35 PM 69.4 °F 32.0 °F 25% 30.03 in 10.0 mi WNW 12.7 mph 18.4 mph N/A   Clear
2:55 PM 70.0 °F 33.3 °F 26% 30.03 in 10.0 mi NNW 11.5 mph 18.4 mph N/A   Scattered Clouds
3:15 PM 69.8 °F 32.2 °F 25% 30.03 in 10.0 mi NW 8.1 mph - N/A   Scattered Clouds
3:35 PM 70.2 °F 33.3 °F 26% 30.03 in 10.0 mi WNW 5.8 mph 18.4 mph N/A   Scattered Clouds
3:55 PM 69.8 °F 34.5 °F 27% 30.03 in 10.0 mi NNW 10.4 mph - N/A   Scattered Clouds
4:15 PM 70.7 °F 32.2 °F 24% 30.03 in 10.0 mi WNW 12.7 mph 18.4 mph N/A   Mostly Cloudy
4:35 PM 68.9 °F 32.4 °F 26% 30.03 in 10.0 mi WNW 8.1 mph - N/A   Mostly Cloudy
4:55 PM 69.6 °F 33.8 °F 27% 30.03 in 10.0 mi NNW 11.5 mph 16.1 mph N/A   Mostly Cloudy
5:15 PM 70.2 °F 32.2 °F 25% 30.03 in 10.0 mi WNW 5.8 mph - N/A   Scattered Clouds
5:35 PM 69.6 °F 32.0 °F 25% 30.03 in 10.0 mi WNW 5.8 mph - N/A   Scattered Clouds
5:55 PM 69.3 °F 32.5 °F 26% 30.03 in 10.0 mi NW 9.2 mph - N/A   Scattered Clouds
6:15 PM 68.7 °F 32.9 °F 27% 30.04 in 10.0 mi NW 6.9 mph - N/A   Clear
6:35 PM 67.8 °F 32.7 °F 27% 30.04 in 10.0 mi NW 6.9 mph - N/A   Clear
6:55 PM 66.2 °F 34.3 °F 31% 30.04 in 10.0 mi NW 3.5 mph - N/A   Clear
7:15 PM 65.5 °F 35.2 °F 33% 30.04 in 10.0 mi Calm Calm - N/A   Clear
7:35 PM 61.5 °F 39.0 °F 43% 30.05 in 10.0 mi Calm Calm - N/A   Clear
7:55 PM 61.2 °F 41.4 °F 48% 30.05 in 10.0 mi Calm Calm - N/A   Clear
8:15 PM 58.3 °F 42.6 °F 56% 30.06 in 10.0 mi Calm Calm - N/A   Clear
8:35 PM 57.4 °F 43.5 °F 60% 30.06 in 10.0 mi Calm Calm - N/A   Clear
8:55 PM 55.6 °F 44.1 °F 65% 30.07 in 10.0 mi Calm Calm - N/A   Clear
9:15 PM 55.4 °F 44.8 °F 67% 30.07 in 10.0 mi Calm Calm - N/A   Clear
9:35 PM 52.3 °F 44.2 °F 74% 30.08 in 10.0 mi Calm Calm - N/A   Clear
9:55 PM 53.8 °F 45.0 °F 72% 30.08 in 10.0 mi Calm Calm - N/A   Clear
10:15 PM 51.6 °F 44.1 °F 75% 30.08 in 10.0 mi Calm Calm - N/A   Clear
10:35 PM 51.1 °F 44.4 °F 78% 30.08 in 10.0 mi Calm Calm - N/A   Clear
10:55 PM 50.4 °F 44.1 °F 79% 30.08 in 10.0 mi Calm Calm - N/A   Clear
11:15 PM 52.0 °F 44.6 °F 76% 30.09 in 10.0 mi Calm Calm - N/A   Clear
11:35 PM 51.4 °F 44.8 °F 78% 30.09 in 10.0 mi Calm Calm - N/A   Clear
11:55 PM 50.9 °F 44.6 °F 79% 30.09 in 10.0 mi Calm Calm - N/A   Clear